Notices

What's New in latest Release from April 7th, 2021:

- Updated Glossary, including Speed of Maximum Gust, and Total Hourly Precipitation

- Updated national and regional climate services offices contacts and prices information

- Addition of station inventory lists for 1981-2010, 1971-2000, and 1961-1990 Normals.

If you haven't already, please take our survey and provide feedback about our website: https://eccc.sondage-survey.ca/f/LanguageSelection.aspx?s=442ca660-fcf1-47c0-95a9-59707d6fd709

Hourly Data Report for September 17, 2017

TORONTO CITY
ONTARIO

43°40'00.000" N
79°24'00.000" W
112.50 m
6158355
71508
XTO

Download Data

Hourly Data (September 2017)
Hourly Data Report for September 17, 2017
TIME
LST
Temp Definition
°C
Dew Point Definition
°C
Rel Hum Definition
%
Precip. Amount Definition
mm

Wind Dir Definition
10's deg

Wind Spd Definition
km/h
Visibility Definition
km
Stn Press Definition
kPa
Hmdx Definition


Wind Chill Definition


Weather Definition


00:00 19.0 15.7 81 0.0 LegendMM LegendMM   100.71     LegendNANA
01:00 19.8 16.2 80 0.0 LegendMM LegendMM   100.68     LegendNANA
02:00 18.4 15.5 83 0.0 LegendMM LegendMM   100.69     LegendNANA
03:00 18.1 15.9 87 0.0 LegendMM LegendMM   100.72     LegendNANA
04:00 17.7 15.6 88 0.0 LegendMM LegendMM   100.67     LegendNANA
05:00 17.6 15.5 87 0.0 LegendMM LegendMM   100.67     LegendNANA
06:00 17.6 15.5 87 0.0 LegendMM LegendMM   100.71     LegendNANA
07:00 17.8 15.3 85 0.0 LegendMM LegendMM   100.75     LegendNANA
08:00 20.1 16.9 82 0.0 LegendMM LegendMM   100.75 25   LegendNANA
09:00 21.2 17.2 78 0.0 LegendMM LegendMM   100.73 27   LegendNANA
10:00 22.1 17.3 74 0.0 LegendMM LegendMM   100.75 28   LegendNANA
11:00 23.6 17.0 66 0.0 LegendMM LegendMM   100.75 29   LegendNANA
12:00 25.0 16.8 60 0.0 LegendMM LegendMM   100.68 30   LegendNANA
13:00 26.1 15.4 52 0.0 LegendMM LegendMM   100.61 30   LegendNANA
14:00 25.7 16.1 56 0.0 LegendMM LegendMM   100.58 30   LegendNANA
15:00 25.6 16.5 57 0.0 LegendMM LegendMM   100.53 31   LegendNANA
16:00 24.6 16.7 61 0.0 LegendMM LegendMM   100.50 30   LegendNANA
17:00 23.2 16.7 67 0.0 LegendMM LegendMM   100.45 28   LegendNANA
18:00 22.2 16.5 70 0.0 LegendMM LegendMM   100.44 27   LegendNANA
19:00 21.7 16.9 74 0.0 LegendMM LegendMM   100.48 27   LegendNANA
20:00 21.4 17.6 79 0.0 LegendMM LegendMM   100.52 27   LegendNANA
21:00 21.6 17.7 79 0.0 LegendMM LegendMM   100.52 27   LegendNANA
22:00 21.6 17.7 78 0.0 LegendMM LegendMM   100.53 27   LegendNANA
23:00 21.0 17.8 82 0.0 LegendMM LegendMM   100.52 27   LegendNANA

Notes on Data Quality.

Legend

  • E = Estimated
  • M = Missing
  • NA = Not Available*
  • [empty] = Indicates an unobserved value
Date modified: